• In Uzbekistan
  • List of Countries
  • For 7 days
  • Water Temperature
  • Satellite Maps
  • Weather Map
  • Weather Widgets
  • user-avatar
    Login

    Hourly Weather San Juan

    Today, 23 September, Saturday

    Time Temperature Precipitation Wind Pressure Humidity
    00:00 +20°C° 0 mm 1 mps 709 mmHg 26%
    01:00 +19°C° 0 mm 1 mps 709 mmHg 27%
    02:00 +19°C° 0 mm 1 mps 708 mmHg 29%
    03:00 +18°C° 0 mm 1 mps 708 mmHg 31%
    04:00 +18°C° 0 mm 1 mps 708 mmHg 32%
    05:00 +19°C° 0 mm 1 mps 708 mmHg 30%
    06:00 +20°C° 0 mm 1 mps 708 mmHg 29%
    07:00 +21°C° 0 mm 1 mps 709 mmHg 27%
    08:00 +22°C° 0 mm 1 mps 709 mmHg 26%
    09:00 +24°C° 0 mm 2 mps 708 mmHg 24%
    10:00 +25°C° 0 mm 2 mps 708 mmHg 22%
    11:00 +26°C° 0 mm 2 mps 707 mmHg 21%
    12:00 +27°C° 0 mm 3 mps 706 mmHg 20%
    13:00 +28°C° 0 mm 3 mps 706 mmHg 18%
    14:00 +28°C° 0 mm 3 mps 705 mmHg 18%
    15:00 +29°C° 0 mm 3 mps 705 mmHg 18%
    16:00 +29°C° 0 mm 4 mps 704 mmHg 18%
    17:00 +27°C° 0 mm 4 mps 704 mmHg 21%
    18:00 +26°C° 0 mm 4 mps 705 mmHg 24%
    19:00 +25°C° 0 mm 4 mps 705 mmHg 26%
    20:00 +23°C° 0 mm 4 mps 705 mmHg 29%
    21:00 +22°C° 0 mm 4 mps 705 mmHg 31%
    22:00 +22°C° 0 mm 3 mps 705 mmHg 33%
    23:00 +21°C° 0 mm 3 mps 705 mmHg 33%

    Tomorrow, 24 September, Sunday

    Time Temperature Precipitation Wind Pressure Humidity
    00:00 +21°C° 0 mm 3 mps 705 mmHg 33%
    01:00 +20°C° 0 mm 3 mps 704 mmHg 34%
    02:00 +20°C° 0 mm 3 mps 704 mmHg 34%
    03:00 +20°C° 0 mm 3 mps 704 mmHg 34%
    04:00 +19°C° 0 mm 3 mps 704 mmHg 34%
    05:00 +20°C° 0 mm 3 mps 704 mmHg 32%
    06:00 +21°C° 0 mm 3 mps 704 mmHg 31%
    07:00 +22°C° 0 mm 3 mps 705 mmHg 29%
    08:00 +25°C° 0 mm 3 mps 705 mmHg 26%
    09:00 +27°C° 0 mm 2 mps 705 mmHg 23%
    10:00 +28°C° 0 mm 2 mps 705 mmHg 21%
    11:00 +29°C° 0 mm 3 mps 705 mmHg 19%
    12:00 +30°C° 0 mm 3 mps 705 mmHg 18%
    13:00 +31°C° 0 mm 3 mps 704 mmHg 16%
    14:00 +32°C° 0 mm 4 mps 704 mmHg 17%
    15:00 +32°C° 0 mm 4 mps 704 mmHg 17%
    16:00 +30°C° 0 mm 4 mps 704 mmHg 18%
    17:00 +29°C° 0 mm 4 mps 705 mmHg 20%
    18:00 +28°C° 0 mm 3 mps 706 mmHg 23%
    19:00 +27°C° 0 mm 2 mps 707 mmHg 26%
    20:00 +26°C° 0 mm 2 mps 707 mmHg 27%
    21:00 +25°C° 0 mm 2 mps 707 mmHg 29%
    22:00 +24°C° 0 mm 1 mps 708 mmHg 31%
    23:00 +24°C° 0 mm 1 mps 708 mmHg 32%

    Day after tomorrow, 25 September, Monday

    Time Temperature Precipitation Wind Pressure Humidity
    00:00 +23°C° 0 mm 1 mps 708 mmHg 34%
    01:00 +22°C° 0 mm 1 mps 708 mmHg 35%
    02:00 +22°C° 0 mm 1 mps 708 mmHg 36%
    03:00 +21°C° 0 mm 1 mps 708 mmHg 37%
    04:00 +21°C° 0 mm 1 mps 708 mmHg 38%
    05:00 +20°C° 0 mm 2 mps 708 mmHg 38%
    06:00 +21°C° 0 mm 3 mps 709 mmHg 37%
    07:00 +22°C° 0 mm 4 mps 710 mmHg 36%
    08:00 +23°C° 0 mm 4 mps 710 mmHg 35%
    09:00 +25°C° 0 mm 4 mps 709 mmHg 34%
    10:00 +26°C° 0 mm 4 mps 709 mmHg 33%
    11:00 +27°C° 0 mm 4 mps 709 mmHg 32%
    12:00 +27°C° 0 mm 3 mps 708 mmHg 31%
    13:00 +28°C° 0 mm 2 mps 707 mmHg 30%
    14:00 +28°C° 0 mm 2 mps 706 mmHg 29%
    15:00 +29°C° 0 mm 2 mps 706 mmHg 28%
    16:00 +29°C° 0 mm 2 mps 705 mmHg 27%
    17:00 +28°C° 0 mm 2 mps 706 mmHg 30%
    18:00 +27°C° 0 mm 3 mps 706 mmHg 33%
    19:00 +26°C° 0 mm 3 mps 707 mmHg 36%
    20:00 +26°C° 0 mm 3 mps 706 mmHg 39%
    21:00 +25°C° 0 mm 3 mps 706 mmHg 42%
    22:00 +24°C° 0 mm 2 mps 706 mmHg 44%
    23:00 +24°C° 0 mm 2 mps 706 mmHg 48%

    26 September, Tuesday

    Time Temperature Precipitation Wind Pressure Humidity
    00:00 +22°C° 0 mm 3 mps 706 mmHg 53%
    01:00 +21°C° 0 mm 3 mps 705 mmHg 57%
    02:00 +20°C° 0 mm 3 mps 705 mmHg 60%
    03:00 +20°C° 0 mm 3 mps 705 mmHg 64%
    04:00 +19°C° 0 mm 3 mps 705 mmHg 67%
    05:00 +19°C° 0 mm 3 mps 705 mmHg 65%
    06:00 +20°C° 0 mm 3 mps 705 mmHg 63%
    07:00 +20°C° 0 mm 4 mps 706 mmHg 60%
    08:00 +21°C° 0 mm 4 mps 706 mmHg 57%
    09:00 +22°C° 0 mm 5 mps 706 mmHg 53%
    10:00 +23°C° 0 mm 5 mps 706 mmHg 49%
    11:00 +23°C° 0 mm 5 mps 705 mmHg 49%
    12:00 +24°C° 0 mm 6 mps 705 mmHg 49%
    13:00 +26°C° 0 mm 6 mps 704 mmHg 49%
    14:00 +24°C° 0 mm 7 mps 705 mmHg 52%
    15:00 +23°C° 0 mm 7 mps 705 mmHg 56%
    16:00 +22°C° 0 mm 8 mps 705 mmHg 59%
    17:00 +21°C° 0 mm 8 mps 706 mmHg 64%
    18:00 +18°C° 0 mm 8 mps 706 mmHg 68%
    19:00 +16°C° 0 mm 7 mps 707 mmHg 73%
    20:00 +16°C° 0 mm 7 mps 708 mmHg 74%
    21:00 +15°C° 0 mm 6 mps 708 mmHg 74%
    22:00 +15°C° 0 mm 6 mps 708 mmHg 75%
    23:00 +14°C° 0 mm 5 mps 708 mmHg 75%

    27 September, Wednesday

    Time Temperature Precipitation Wind Pressure Humidity
    00:00 +14°C° 0 mm 5 mps 708 mmHg 75%
    01:00 +14°C° 0 mm 5 mps 708 mmHg 75%
    02:00 +13°C° 0.1 mm 4 mps 708 mmHg 76%
    03:00 +13°C° 0.1 mm 4 mps 708 mmHg 77%
    04:00 +13°C° 0.1 mm 4 mps 707 mmHg 78%
    05:00 +13°C° 0 mm 4 mps 708 mmHg 76%
    06:00 +13°C° 0 mm 4 mps 708 mmHg 75%
    07:00 +13°C° 0 mm 3 mps 709 mmHg 73%
    08:00 +16°C° 0 mm 3 mps 708 mmHg 68%
    09:00 +17°C° 0 mm 3 mps 708 mmHg 62%
    10:00 +18°C° 0 mm 3 mps 708 mmHg 57%
    11:00 +20°C° 0 mm 3 mps 707 mmHg 53%
    12:00 +21°C° 0 mm 3 mps 706 mmHg 49%
    13:00 +23°C° 0 mm 2 mps 705 mmHg 46%
    14:00 +24°C° 0 mm 3 mps 705 mmHg 46%
    15:00 +24°C° 0 mm 3 mps 705 mmHg 45%
    16:00 +24°C° 0 mm 3 mps 705 mmHg 45%
    17:00 +22°C° 0 mm 3 mps 705 mmHg 49%
    18:00 +21°C° 0 mm 3 mps 706 mmHg 53%
    19:00 +20°C° 0 mm 3 mps 706 mmHg 57%
    20:00 +20°C° 0 mm 3 mps 706 mmHg 60%
    21:00 +19°C° 0 mm 2 mps 706 mmHg 62%
    22:00 +19°C° 0 mm 2 mps 707 mmHg 64%
    23:00 +19°C° 0 mm 1 mps 706 mmHg 65%

    28 September, Thursday

    Time Temperature Precipitation Wind Pressure Humidity
    00:00 +19°C° 0 mm 1 mps 706 mmHg 67%
    01:00 +19°C° 0 mm 1 mps 706 mmHg 68%
    02:00 +18°C° 0 mm 1 mps 706 mmHg 69%
    03:00 +18°C° 0 mm 1 mps 705 mmHg 69%
    04:00 +18°C° 0 mm 1 mps 705 mmHg 70%
    05:00 +19°C° 0 mm 1 mps 706 mmHg 67%
    06:00 +19°C° 0 mm 1 mps 706 mmHg 65%
    07:00 +20°C° 0 mm 1 mps 707 mmHg 63%
    08:00 +21°C° 0 mm 1 mps 707 mmHg 56%
    09:00 +23°C° 0 mm 1 mps 706 mmHg 50%
    10:00 +25°C° 0 mm 2 mps 706 mmHg 44%
    11:00 +26°C° 0 mm 2 mps 706 mmHg 40%
    12:00 +27°C° 0 mm 2 mps 705 mmHg 35%
    13:00 +28°C° 0 mm 2 mps 705 mmHg 31%
    14:00 +28°C° 0 mm 2 mps 705 mmHg 30%
    15:00 +29°C° 0 mm 2 mps 704 mmHg 29%
    16:00 +29°C° 0 mm 2 mps 704 mmHg 28%
    17:00 +28°C° 0 mm 2 mps 705 mmHg 32%
    18:00 +27°C° 0 mm 2 mps 705 mmHg 35%
    19:00 +26°C° 0 mm 1 mps 706 mmHg 38%
    20:00 +25°C° 0 mm 1 mps 706 mmHg 40%
    21:00 +25°C° 0 mm 1 mps 706 mmHg 43%
    22:00 +24°C° 0 mm 1 mps 706 mmHg 45%
    23:00 +23°C° 0 mm 2 mps 706 mmHg 46%
    Show more